Location: Bryzozowice
(50.3667°N, 18.9667°E)
Time: 22:11:34
(UTC+00:00)

Cosmos 2366 rocket - Pass Details

Date: 24 January 2020
Orbit: 956 x 996 km, 82.9° (Epoch: 17 February)

Event Time Altitude Azimuth Distance (km) Brightness Sun altitude
Rises 16:43:11 0° 169° (S) 3,647 7.1 -12.7°
Reaches altitude 10° 16:45:43 10° 165° (SSE) 2,710 6.3 -13.1°
Maximum altitude 16:51:41 51° 91° (E) 1,217 4.1 -14.0°
Drops below altitude 10° 16:57:45 10° 18° (NNE) 2,756 6.1 -14.9°
Sets 17:00:21 0° 13° (NNE) 3,714 6.8 -15.3°
